Location: *
(44.3683°N, 6.6958°E)
Time: 06:49:09
(UTC+00:00)

Meteor 2-10 - Pass Details

Date: 14 October 2019
Orbit: 738 x 869 km, 81.2° (Epoch: 11 November)

Event Time Altitude Azimuth Distance (km) Brightness Sun altitude
Rises 18:33:08 0° 194° (SSW) 3,226 7.3 -18.9°
Reaches altitude 10° 18:35:31 10° 196° (SSW) 2,287 6.5 -19.4°
Maximum altitude 18:40:37 74° 281° (W) 781 4.1 -20.3°
Drops below altitude 10° 18:45:41 10° 7° (N) 2,259 6.5 -21.2°
Sets 18:48:01 0° 9° (N) 3,183 7.2 -21.6°
